Effingham, IL

7:01 AM CDT on October 19, 2017 (GMT -0500)
Effingham

Weather History for K1H2 - April, 2013

Change the Weather History Date:

Monday, April 1, 2013

  Actual Average (KMTO) Record (KMTO)
Temperature  
Mean Temperature 40 °F -  
Max Temperature 47 °F 57 °F 84 °F (2012)
Min Temperature 34 °F 36 °F 22 °F (1954)
Degree Days  
Heating Degree Days 25    
Moisture  
Dew Point 26 °F    
Average Humidity 56    
Maximum Humidity 79    
Minimum Humidity 40    
Precipitation  
Precipitation 0.00 in - - ()
Sea Level Pressure  
Sea Level Pressure 30.12 in    
Wind  
Wind Speed 11 mph (NW)    
Max Wind Speed 18 mph    
Max Gust Speed 23 mph    
Visibility 10 miles    
Events      
Averages and records for this station are not official NWS values.
T = Trace of Precipitation, MM = Missing Value Source: NWS Daily Summary

Daily Weather History Graph

Daily Weather History Graph

Search for Another Location

Airport or City:

Trip Planner

Search our weather history database for the weather conditions in past years. The results will help you decide how hot, cold, wet, or windy it might be!

Date:

Astronomy

Apr. 01, 2013 Rise Set
Actual Time 6:38 AM CDT 7:18 PM CDT
Civil Twilight 6:11 AM CDT 7:45 PM CDT
Nautical Twilight 5:39 AM CDT 8:16 PM CDT
Astronomical Twilight 5:06 AM CDT 8:49 PM CDT
Moon 12:24 AM CDT (4/1) 10:26 AM CDT (4/1)
Length of Visible Light 13h 33m
Length of Day
12h 39m
Waning Gibbous, 67% of the Moon is Illuminated
Apr 1
Waning Gibbous
Apr 2
Last Quarter
Apr 10
New
Apr 18
First Quarter
Apr 25
Full

Hourly Weather History & Observations

Time (CDT) Temp. Windchill Dew Point Humidity Pressure Visibility Wind Dir Wind Speed Gust Speed Precip Events Conditions
12:15 AM 46.8 °F - 32.0 °F 57% 29.93 in 10.0 mi NNW 9.2 mph 16.1 mph N/A   Clear
12:35 AM 45.5 °F 39.6 °F 31.8 °F 59% 29.93 in 10.0 mi NNW 12.7 mph 18.4 mph N/A   Clear
12:55 AM 44.4 °F 38.6 °F 31.5 °F 60% 29.94 in 10.0 mi NNW 11.5 mph - N/A   Clear
1:15 AM 43.5 °F 37.9 °F 31.8 °F 63% 29.95 in 10.0 mi NNW 10.4 mph 16.1 mph N/A   Scattered Clouds
1:35 AM 42.8 °F 36.6 °F 32.0 °F 66% 29.96 in 10.0 mi NNW 11.5 mph 16.1 mph N/A   Mostly Cloudy
1:55 AM 42.6 °F 36.8 °F 32.0 °F 66% 29.96 in 10.0 mi NNW 10.4 mph 16.1 mph N/A   Mostly Cloudy
2:15 AM 42.3 °F 35.9 °F 32.0 °F 67% 29.97 in 10.0 mi NW 11.5 mph - N/A   Overcast
2:35 AM 41.9 °F 36.3 °F 31.1 °F 66% 29.97 in 10.0 mi NW 9.2 mph - N/A   Overcast
2:55 AM 41.2 °F 33.7 °F 30.9 °F 67% 29.99 in 10.0 mi NW 13.8 mph - N/A   Mostly Cloudy
3:15 AM 40.6 °F 34.8 °F 30.6 °F 67% 29.98 in 10.0 mi NNW 9.2 mph 17.3 mph N/A   Mostly Cloudy
3:35 AM 40.3 °F 32.6 °F 30.2 °F 67% 30.00 in 10.0 mi NNW 13.8 mph 18.4 mph N/A   Overcast
3:55 AM 39.7 °F 31.5 °F 30.2 °F 69% 30.00 in 10.0 mi NNW 15.0 mph 18.4 mph N/A   Overcast
4:15 AM 39.7 °F 31.5 °F 29.3 °F 66% 30.01 in 10.0 mi NNW 15.0 mph - N/A   Overcast
4:35 AM 38.8 °F 29.4 °F 29.1 °F 68% 30.03 in 10.0 mi NNW 18.4 mph 23.0 mph N/A   Overcast
4:55 AM 36.7 °F 29.9 °F 30.7 °F 79% 30.02 in 10.0 mi North 9.2 mph - N/A   Overcast
5:15 AM 37.0 °F 32.4 °F 30.2 °F 76% 30.02 in 10.0 mi NNW 5.8 mph - N/A   Overcast
5:35 AM 37.6 °F 32.3 °F 28.4 °F 69% 30.03 in 10.0 mi NNW 6.9 mph - N/A   Overcast
5:55 AM 37.8 °F 30.2 °F 25.0 °F 60% 30.05 in 10.0 mi NNW 11.5 mph 18.4 mph N/A   Overcast
6:15 AM 37.4 °F 28.5 °F 25.5 °F 62% 30.06 in 10.0 mi NW 15.0 mph - N/A   Overcast
6:35 AM 36.7 °F 29.9 °F 25.0 °F 63% 30.07 in 10.0 mi NW 9.2 mph - N/A   Overcast
6:55 AM 36.7 °F 31.2 °F 25.5 °F 64% 30.08 in 10.0 mi NW 6.9 mph - N/A   Overcast
7:15 AM 36.9 °F 30.7 °F 25.5 °F 64% 30.10 in 10.0 mi NW 8.1 mph - N/A   Overcast
7:35 AM 37.0 °F 29.8 °F 26.4 °F 65% 30.10 in 10.0 mi NW 10.4 mph - N/A   Overcast
7:55 AM 37.4 °F 30.8 °F 25.7 °F 63% 30.11 in 10.0 mi NNW 9.2 mph - N/A   Mostly Cloudy
8:15 AM 38.1 °F 29.8 °F 25.0 °F 59% 30.12 in 10.0 mi NNW 13.8 mph 18.4 mph N/A   Scattered Clouds
8:35 AM 37.9 °F 29.6 °F 23.9 °F 57% 30.13 in 10.0 mi NNW 13.8 mph - N/A   Clear
8:55 AM 38.3 °F 30.1 °F 24.6 °F 58% 30.14 in 10.0 mi NW 13.8 mph - N/A   Clear
9:15 AM 38.3 °F 30.5 °F 24.4 °F 57% 30.14 in 10.0 mi NNW 12.7 mph - N/A   Clear
9:35 AM 39.4 °F 32.3 °F 25.5 °F 58% 30.15 in 10.0 mi NNW 11.5 mph 16.1 mph N/A   Clear
9:55 AM 39.2 °F 32.5 °F 24.4 °F 56% 30.15 in 10.0 mi NNW 10.4 mph 19.6 mph N/A   Clear
10:15 AM 39.7 °F 31.9 °F 24.1 °F 54% 30.15 in 10.0 mi NW 13.8 mph 18.4 mph N/A   Scattered Clouds
10:35 AM 40.8 °F 34.5 °F 24.4 °F 52% 30.16 in 10.0 mi NNW 10.4 mph - N/A   Clear
10:55 AM 41.0 °F 34.7 °F 24.6 °F 52% 30.17 in 10.0 mi NW 10.4 mph - N/A   Scattered Clouds
11:15 AM 41.0 °F 33.9 °F 24.8 °F 53% 30.17 in 10.0 mi NW 12.7 mph - N/A   Scattered Clouds
11:35 AM 41.5 °F 35.4 °F 25.2 °F 52% 30.17 in 10.0 mi NW 10.4 mph 21.9 mph N/A   Scattered Clouds
11:55 AM 42.1 °F 34.5 °F 24.1 °F 49% 30.17 in 10.0 mi NW 15.0 mph 23.0 mph N/A   Scattered Clouds
12:15 PM 42.4 °F 35.0 °F 24.1 °F 48% 30.17 in 10.0 mi NW 15.0 mph - N/A   Scattered Clouds
12:35 PM 43.3 °F 37.7 °F 25.7 °F 50% 30.17 in 10.0 mi NW 10.4 mph 18.4 mph N/A   Scattered Clouds
12:55 PM 44.1 °F 37.1 °F 26.8 °F 51% 30.16 in 10.0 mi NW 15.0 mph 18.4 mph N/A   Scattered Clouds
1:15 PM 43.5 °F 37.1 °F 24.1 °F 46% 30.17 in 10.0 mi NNW 12.7 mph 19.6 mph N/A   Scattered Clouds
1:35 PM 44.1 °F 36.8 °F 24.1 °F 45% 30.16 in 10.0 mi NW 16.1 mph 20.7 mph N/A   Scattered Clouds
1:55 PM 44.2 °F 38.8 °F 23.2 °F 43% 30.16 in 10.0 mi NNW 10.4 mph 18.4 mph N/A   Scattered Clouds
2:15 PM 45.1 °F 38.8 °F 25.5 °F 46% 30.16 in 10.0 mi NW 13.8 mph 17.3 mph N/A   Scattered Clouds
2:35 PM 45.0 °F 39.3 °F 24.8 °F 45% 30.16 in 10.0 mi North 11.5 mph 21.9 mph N/A   Scattered Clouds
2:55 PM 45.1 °F 40.8 °F 23.5 °F 43% 30.16 in 10.0 mi WNW 8.1 mph 17.3 mph N/A   Scattered Clouds
3:15 PM 46.6 °F - 25.2 °F 43% 30.16 in 10.0 mi WNW 12.7 mph 20.7 mph N/A   Overcast
3:35 PM 46.2 °F 40.1 °F 27.3 °F 48% 30.16 in 10.0 mi NNW 13.8 mph 19.6 mph N/A   Overcast
3:55 PM 46.2 °F 40.5 °F 25.3 °F 44% 30.16 in 10.0 mi NNW 12.7 mph 17.3 mph N/A   Overcast
4:15 PM 44.4 °F 37.5 °F 23.0 °F 43% 30.16 in 10.0 mi NW 15.0 mph - N/A   Mostly Cloudy
4:35 PM 45.9 °F 39.1 °F 23.0 °F 41% 30.16 in 10.0 mi NW 16.1 mph 20.7 mph N/A   Scattered Clouds
4:55 PM 45.5 °F 39.6 °F 22.1 °F 40% 30.16 in 10.0 mi NW 12.7 mph 19.6 mph N/A   Scattered Clouds
5:15 PM 45.7 °F 39.5 °F 23.5 °F 42% 30.16 in 10.0 mi NW 13.8 mph 17.3 mph N/A   Scattered Clouds
5:35 PM 45.5 °F 39.9 °F 23.5 °F 42% 30.16 in 10.0 mi WNW 11.5 mph - N/A   Scattered Clouds
5:55 PM 44.6 °F 38.4 °F 22.6 °F 42% 30.16 in 10.0 mi WNW 12.7 mph 18.4 mph N/A   Scattered Clouds
6:15 PM 43.7 °F 38.1 °F 24.1 °F 46% 30.17 in 10.0 mi WNW 10.4 mph 17.3 mph N/A   Scattered Clouds
6:35 PM 43.2 °F 37.4 °F 24.1 °F 47% 30.17 in 10.0 mi NW 10.4 mph - N/A   Scattered Clouds
6:55 PM 42.8 °F 37.0 °F 22.3 °F 44% 30.17 in 10.0 mi WNW 10.4 mph - N/A   Clear
7:15 PM 42.1 °F 37.7 °F 21.7 °F 44% 30.17 in 10.0 mi NW 6.9 mph - N/A   Clear
7:35 PM 39.9 °F 35.8 °F 26.4 °F 59% 30.17 in 10.0 mi WNW 5.8 mph - N/A   Scattered Clouds
7:55 PM 38.5 °F 33.4 °F 26.1 °F 61% 30.17 in 10.0 mi West 6.9 mph - N/A   Clear
8:15 PM 38.1 °F 32.9 °F 26.4 °F 63% 30.18 in 10.0 mi WNW 6.9 mph - N/A   Clear
8:35 PM 37.4 °F 32.8 °F 26.6 °F 65% 30.18 in 10.0 mi WNW 5.8 mph - N/A   Clear
8:55 PM 37.0 °F 32.4 °F 25.7 °F 64% 30.18 in 10.0 mi NW 5.8 mph - N/A   Clear
9:15 PM 37.4 °F 33.8 °F 24.4 °F 60% 30.19 in 10.0 mi NW 4.6 mph - N/A   Clear
9:35 PM 36.9 °F 33.1 °F 23.5 °F 59% 30.20 in 10.0 mi NW 4.6 mph - N/A   Clear
9:55 PM 36.5 °F 31.8 °F 23.4 °F 59% 30.20 in 10.0 mi NW 5.8 mph - N/A   Clear
10:15 PM 36.1 °F 31.4 °F 23.5 °F 60% 30.20 in 10.0 mi NW 5.8 mph - N/A   Clear
10:35 PM 36.0 °F 33.3 °F 22.3 °F 58% 30.20 in 10.0 mi NNW 3.5 mph - N/A   Clear
10:55 PM 35.8 °F 31.9 °F 21.7 °F 57% 30.20 in 10.0 mi NNW 4.6 mph - N/A   Clear
11:15 PM 35.6 °F 31.7 °F 21.4 °F 56% 30.20 in 10.0 mi NNW 4.6 mph - N/A   Clear
11:35 PM 34.9 °F 30.8 °F 21.4 °F 58% 30.20 in 10.0 mi NNW 4.6 mph - N/A   Clear
11:55 PM 34.7 °F 29.6 °F 21.4 °F 58% 30.21 in 10.0 mi NNW 5.8 mph - N/A   Clear